Погода в Тундре

Россия / Архангельская область     64°09′25″N   40°35′13″E
темп.,
°C
ветер,
м/с
пор.,
м/с
влажн.,
%
обл.,
%
осадки,
мм/ч
давл.,
гПа
погр.,
м
5 августа, чт
чт500:00+9зюз51081100 0.0 10091141
03:00+10зюз4985100 0.1 1010935
06:00+10зюз41092100 0.4 1012859
09:00+11зюз4109099 0.8 1014808
12:00+13сз477576 0.2 1015960
15:00+15ссз456179 0.4 10171227
18:00+14с33605 0.0 1018715
21:00+9с22875 0.0 101915
6 августа, пт
пт600:00+7ссв11945 0.0 102010
03:00+6юв11955 0.0 102110
06:00+9в12895 0.0 1021119
09:00+14в23583 0.0 1022806
12:00+17в33435 0.0 10211622
15:00+19в233849 0.0 10212175
18:00+17св365092 0.0 1021523
21:00+11в237122 0.0 102249
7 августа, сб
сб700:00+9в227612 0.0 102232
03:00+8в22865 0.0 102327
06:00+11в24804 0.0 1024132
09:00+16в34540 0.0 1024677
12:00+19в34420 0.0 10231752
15:00+21всв45371 0.0 10221937
18:00+19в35420 0.0 10221710
21:00+12в310650 0.0 1022183
8 августа, вс
вс800:00+10в310745 0.0 1022196
03:00+8в3118158 0.0 1022243
06:00+10в4127294 0.0 1022358
09:00+16в595194 0.0 1021734
12:00+19вюв5839100 0.0 10201541
15:00+20вюв5837100 0.0 10201735
18:00+18в4944100 0.0 10201413
21:00+12вюв1179100 0.0 102019
9 августа, пн
пн900:00+12вюв2680100 0.0 1020175
03:00+11всв31086100 0.2 1019384
06:00+12в41377100 0.0 1019733
09:00+13в5127199 0.0 1019831
12:00+13в51173100 0.0 1020825
15:00+14вюв4117295 0.0 1021868
18:00+13вюв21081100 0.0 1021636
21:00+12вюв298568 0.0 1021470